| time (UTC) | temp F | wind direction | speed knots | gust knots | rain 1hr in | rain 24hr in | rain mn in | humidity % | barometer mb |
| 20260505213831 | 77 | 159 | 0.9 | 2.6 | 0.00 | 0.00 | 0.00 | 40 | |
| 20260505213329 | 76 | 137 | 0.0 | 0.9 | 0.00 | 0.00 | 0.00 | 42 | |
| 20260505212824 | 76 | 140 | 0.0 | 0.9 | 0.00 | 0.00 | 0.00 | 44 | |
| 20260505212322 | 76 | 141 | 0.9 | 2.6 | 0.00 | 0.00 | 0.00 | 43 | |
| 20260505211818 | 76 | 150 | 0.9 | 1.7 | 0.00 | 0.00 | 0.00 | 40 | |
| 20260505211316 | 77 | 192 | 1.7 | 2.6 | 0.00 | 0.00 | 0.00 | 39 | |
| 20260505210812 | 77 | 145 | 1.7 | 2.6 | 0.00 | 0.00 | 0.00 | 42 | |
| 20260505210309 | 78 | 150 | 0.9 | 1.7 | 0.00 | 0.00 | 0.00 | 40 | |
| 20260505205806 | 78 | 144 | 0.9 | 1.7 | 0.00 | 0.00 | 0.00 | 42 | |
| 20260505205305 | 77 | 155 | 0.9 | 1.7 | 0.00 | 0.00 | 0.00 | 40 | |
| 20260505204801 | 77 | 123 | 0.0 | 0.9 | 0.00 | 0.00 | 0.00 | 40 | |
| 20260505204259 | 77 | 141 | 0.0 | 0.9 | 0.00 | 0.00 | 0.00 | 40 | |
| 20260505203755 | 78 | 131 | 0.0 | 1.7 | 0.00 | 0.00 | 0.00 | 43 | |
| 20260505203252 | 78 | 165 | 1.7 | 1.7 | 0.00 | 0.00 | 0.00 | 40 | |
| 20260505202749 | 78 | 129 | 0.9 | 1.7 | 0.00 | 0.00 | 0.00 | 39 | |
| 20260505202244 | 78 | 141 | 0.0 | 2.6 | 0.00 | 0.00 | 0.00 | 42 | |
| 20260505201741 | 78 | 138 | 0.9 | 1.7 | 0.00 | 0.00 | 0.00 | 41 | |
| 20260505201239 | 79 | 160 | 0.9 | 1.7 | 0.00 | 0.00 | 0.00 | 39 | |
| 20260505200737 | 79 | 142 | 0.0 | 1.7 | 0.00 | 0.00 | 0.00 | 41 | |
| 20260505200234 | 80 | 137 | 0.0 | 0.0 | 0.00 | 0.00 | 0.00 | 40 | |
| 20260505195729 | 79 | 156 | 1.7 | 1.7 | 0.00 | 0.00 | 0.00 | 39 | |
| 20260505195227 | 78 | 142 | 0.9 | 1.7 | 0.00 | 0.00 | 0.00 | 41 | |
| 20260505194724 | 78 | 136 | 0.9 | 2.6 | 0.00 | 0.00 | 0.00 | 39 | |
| 20260505194220 | 79 | 134 | 0.0 | 1.7 | 0.00 | 0.00 | 0.00 | 39 | |
| 20260505193716 | 80 | 205 | 1.7 | 2.6 | 0.00 | 0.00 | 0.00 | 38 | |
| 20260505193214 | 79 | 152 | 1.7 | 2.6 | 0.00 | 0.00 | 0.00 | 38 | |
| 20260505192712 | 80 | 132 | 0.0 | 0.9 | 0.00 | 0.00 | 0.00 | 37 | |
| 20260505192209 | 79 | 145 | 0.9 | 1.7 | 0.00 | 0.00 | 0.00 | 38 | |
| 20260505191708 | 78 | 154 | 0.9 | 1.7 | 0.00 | 0.00 | 0.00 | 38 | |
| 20260505191206 | 78 | 178 | 0.9 | 1.7 | 0.00 | 0.00 | 0.00 | 38 | |
| 20260505190702 | 79 | 137 | 0.9 | 1.7 | 0.00 | 0.00 | 0.00 | 39 | |
| 20260505190201 | 79 | 163 | 1.7 | 1.7 | 0.00 | 0.00 | 0.00 | 38 | |
| 20260505185658 | 78 | 141 | 0.0 | 1.7 | 0.00 | 0.00 | 0.00 | 41 | |
| 20260505185155 | 78 | 144 | 0.9 | 2.6 | 0.00 | 0.00 | 0.00 | 37 | |
| 20260505184651 | 77 | 133 | 1.7 | 2.6 | 0.00 | 0.00 | 0.00 | 39 | |
| 20260505184148 | 77 | 127 | 0.9 | 2.6 | 0.00 | 0.00 | 0.00 | 38 | |
| 20260505183645 | 77 | 135 | 0.0 | 1.7 | 0.00 | 0.00 | 0.00 | 41 | |
| 20260505183143 | 77 | 129 | 1.7 | 1.7 | 0.00 | 0.00 | 0.00 | 40 | |
| 20260505182638 | 78 | 149 | 0.9 | 1.7 | 0.00 | 0.00 | 0.00 | 37 | |
| 20260505182136 | 78 | 149 | 0.9 | 1.7 | 0.00 | 0.00 | 0.00 | 39 | |
| 20260505181632 | 77 | 142 | 0.9 | 1.7 | 0.00 | 0.00 | 0.00 | 36 | |
| 20260505181130 | 77 | 156 | 1.7 | 2.6 | 0.00 | 0.00 | 0.00 | 39 | |
| 20260505180626 | 77 | 161 | 0.9 | 1.7 | 0.00 | 0.00 | 0.00 | 40 | |
| 20260505180123 | 78 | 133 | 0.9 | 2.6 | 0.00 | 0.00 | 0.00 | 39 | |
| 20260505175619 | 78 | 107 | 0.9 | 1.7 | 0.00 | 0.00 | 0.00 | 40 | |
| 20260505175116 | 78 | 184 | 2.6 | 2.6 | 0.00 | 0.00 | 0.00 | 41 | |
| 20260505174612 | 78 | 184 | 1.7 | 2.6 | 0.00 | 0.00 | 0.00 | 38 | |
| 20260505174108 | 78 | 137 | 0.9 | 5.2 | 0.00 | 0.00 | 0.00 | 40 | |
| 20260505173605 | 77 | 125 | 1.7 | 2.6 | 0.00 | 0.00 | 0.00 | 39 | |
| 20260505173102 | 77 | 155 | 0.9 | 1.7 | 0.00 | 0.00 | 0.00 | 40 | |
| 20260505172600 | 76 | 195 | 1.7 | 2.6 | 0.00 | 0.00 | 0.00 | 37 | |
| 20260505172056 | 76 | 199 | 1.7 | 2.6 | 0.00 | 0.00 | 0.00 | 38 | |
| 20260505171551 | 77 | 213 | 2.6 | 3.5 | 0.00 | 0.00 | 0.00 | 39 | |
| 20260505171048 | 76 | 134 | 0.0 | 1.7 | 0.00 | 0.00 | 0.00 | 40 | |
| 20260505170545 | 76 | 147 | 0.9 | 1.7 | 0.00 | 0.00 | 0.00 | 41 | |
| 20260505170041 | 75 | 108 | 1.7 | 2.6 | 0.00 | 0.00 | 0.00 | 42 | |
| 20260505165536 | 76 | 89 | 1.7 | 2.6 | 0.00 | 0.00 | 0.00 | 41 | |
| 20260505165032 | 75 | 148 | 1.7 | 2.6 | 0.00 | 0.00 | 0.00 | 42 | |
| 20260505164528 | 75 | 142 | 1.7 | 2.6 | 0.00 | 0.00 | 0.00 | 40 | |
| 20260505164026 | 75 | 182 | 0.9 | 1.7 | 0.00 | 0.00 | 0.00 | 40 | |
| 20260505163525 | 75 | 125 | 2.6 | 2.6 | 0.00 | 0.00 | 0.00 | 45 | |
| 20260505163021 | 74 | 164 | 0.9 | 1.7 | 0.00 | 0.00 | 0.00 | 50 | |
| 20260505162515 | 73 | 137 | 0.0 | 0.9 | 0.00 | 0.00 | 0.00 | 47 | |
| 20260505162012 | 73 | 107 | 0.9 | 0.9 | 0.00 | 0.00 | 0.00 | 49 | |
| 20260505161508 | 73 | 141 | 0.9 | 1.7 | 0.00 | 0.00 | 0.00 | 51 | |
| 20260505161006 | 73 | 136 | 0.0 | 1.7 | 0.00 | 0.00 | 0.00 | 48 | |
| 20260505160503 | 73 | 124 | 0.9 | 1.7 | 0.00 | 0.00 | 0.00 | 49 | |
| 20260505152940 | 71 | 141 | 0.9 | 1.7 | 0.00 | 0.00 | 0.00 | 53 | |
| 20260505152437 | 71 | 142 | 0.9 | 1.7 | 0.00 | 0.00 | 0.00 | 54 | |
| 20260505151938 | 71 | 141 | 0.9 | 1.7 | 0.00 | 0.00 | 0.00 | 54 | |
| 20260505151433 | 71 | 129 | 0.0 | 1.7 | 0.00 | 0.00 | 0.00 | 56 | |
| 20260505150931 | 70 | 148 | 0.9 | 2.6 | 0.00 | 0.00 | 0.00 | 54 | |
| 20260505150428 | 70 | 134 | 0.9 | 0.9 | 0.00 | 0.00 | 0.00 | 57 | |
| 20260505140358 | 65 | 136 | 0.9 | 0.9 | 0.00 | 0.00 | 0.00 | 67 | |
| 20260505124811 | 60 | 150 | 1.7 | 1.7 | 0.00 | 0.00 | 0.00 | 79 | |
| 20260505124308 | 60 | 144 | 0.0 | 0.0 | 0.00 | 0.00 | 0.00 | 80 | |
| 20260505123804 | 59 | 137 | 0.0 | 1.7 | 0.00 | 0.00 | 0.00 | 80 | |
| 20260505123301 | 59 | 128 | 0.0 | 1.7 | 0.00 | 0.00 | 0.00 | 81 | |
| 20260505122757 | 58 | 147 | 0.0 | 0.0 | 0.00 | 0.00 | 0.00 | 81 | |
| 20260505122255 | 58 | 137 | 0.0 | 0.0 | 0.00 | 0.00 | 0.00 | 81 | |
| 20260505121751 | 57 | 141 | 0.0 | 0.0 | 0.00 | 0.00 | 0.00 | 81 | |
| 20260505121248 | 57 | 140 | 0.0 | 0.0 | 0.00 | 0.00 | 0.00 | 82 | |
| 20260505120744 | 57 | 134 | 0.0 | 0.0 | 0.00 | 0.00 | 0.00 | 83 | |
| 20260505120240 | 56 | 132 | 0.0 | 0.0 | 0.00 | 0.00 | 0.00 | 84 | |
| 20260505115739 | 55 | 131 | 0.0 | 0.0 | 0.00 | 0.00 | 0.00 | 86 | |
| 20260505115237 | 55 | 131 | 0.0 | 0.0 | 0.00 | 0.00 | 0.00 | 86 | |
| 20260505114734 | 55 | 131 | 0.0 | 0.0 | 0.00 | 0.00 | 0.00 | 86 | |
| 20260505114230 | 55 | 131 | 0.0 | 0.0 | 0.00 | 0.00 | 0.00 | 86 | |
| 20260505113727 | 55 | 131 | 0.0 | 0.0 | 0.00 | 0.00 | 0.00 | 86 | |
| 20260505113223 | 55 | 131 | 0.0 | 0.0 | 0.00 | 0.00 | 0.00 | 86 | |
| 20260505112720 | 55 | 131 | 0.0 | 0.0 | 0.00 | 0.00 | 0.00 | 85 | |
| 20260505112218 | 55 | 131 | 0.0 | 0.0 | 0.00 | 0.00 | 0.00 | 84 | |
| 20260505111717 | 55 | 129 | 0.0 | 0.9 | 0.00 | 0.00 | 0.00 | 85 | |
| 20260505111214 | 54 | 128 | 0.9 | 0.9 | 0.00 | 0.00 | 0.00 | 85 | |
| 20260505110709 | 54 | 128 | 0.9 | 0.9 | 0.00 | 0.00 | 0.00 | 87 | |
| 20260505110207 | 53 | 128 | 0.0 | 0.9 | 0.00 | 0.00 | 0.00 | 89 | |
| 20260505102143 | 53 | 128 | 0.0 | 0.0 | 0.00 | 0.00 | 0.00 | 90 | |
| 20260505101641 | 53 | 128 | 0.0 | 0.0 | 0.00 | 0.00 | 0.00 | 89 | |
| 20260505101137 | 52 | 128 | 0.0 | 0.0 | 0.00 | 0.00 | 0.00 | 89 | |
| 20260505100633 | 52 | 127 | 0.0 | 0.0 | 0.00 | 0.00 | 0.00 | 89 | |
| 20260505100130 | 52 | 128 | 0.0 | 0.0 | 0.00 | 0.00 | 0.00 | 89 | |
| 20260505095626 | 52 | 129 | 0.0 | 0.0 | 0.00 | 0.00 | 0.00 | 89 | |
| 20260505095124 | 52 | 129 | 0.0 | 0.0 | 0.00 | 0.00 | 0.00 | 89 | |
| 20260505094620 | 52 | 128 | 0.0 | 0.0 | 0.00 | 0.00 | 0.00 | 88 | |
| 20260505094116 | 52 | 128 | 0.0 | 0.0 | 0.00 | 0.00 | 0.00 | 88 | |
| 20260505093612 | 52 | 128 | 0.0 | 0.0 | 0.00 | 0.00 | 0.00 | 87 | |
| 20260505093110 | 52 | 128 | 0.0 | 0.0 | 0.00 | 0.00 | 0.00 | 87 | |
| 20260505092607 | 52 | 128 | 0.0 | 0.0 | 0.00 | 0.00 | 0.00 | 86 | |
| 20260505092106 | 52 | 128 | 0.0 | 0.0 | 0.00 | 0.00 | 0.00 | 85 | |
| 20260505091602 | 53 | 128 | 0.0 | 0.0 | 0.00 | 0.00 | 0.00 | 85 | |
| 20260505091100 | 52 | 128 | 0.0 | 0.0 | 0.00 | 0.00 | 0.00 | 85 | |
| 20260505090558 | 52 | 129 | 0.0 | 0.0 | 0.00 | 0.00 | 0.00 | 85 | |
| 20260505090055 | 52 | 120 | 0.0 | 0.0 | 0.00 | 0.00 | 0.00 | 85 | |
| 20260505085553 | 52 | 120 | 0.0 | 0.0 | 0.00 | 0.00 | 0.00 | 85 | |
| 20260505085051 | 52 | 120 | 0.0 | 0.0 | 0.00 | 0.00 | 0.00 | 85 | |
| 20260505084549 | 52 | 120 | 0.0 | 0.0 | 0.00 | 0.00 | 0.00 | 85 | |
| 20260505084047 | 52 | 120 | 0.0 | 0.0 | 0.00 | 0.00 | 0.00 | 84 | |
| 20260505083544 | 52 | 120 | 0.0 | 0.0 | 0.00 | 0.00 | 0.00 | 84 | |
| 20260505083040 | 52 | 120 | 0.0 | 0.0 | 0.00 | 0.00 | 0.00 | 83 | |
| 20260505082536 | 52 | 120 | 0.0 | 0.0 | 0.00 | 0.00 | 0.00 | 83 | |
| 20260505082033 | 52 | 119 | 0.0 | 0.0 | 0.00 | 0.00 | 0.00 | 82 | |
| 20260505081529 | 52 | 120 | 0.0 | 0.0 | 0.00 | 0.00 | 0.00 | 82 | |
| 20260505081027 | 52 | 119 | 0.0 | 0.0 | 0.00 | 0.00 | 0.00 | 82 | |
| 20260505080523 | 52 | 119 | 0.0 | 0.0 | 0.00 | 0.00 | 0.00 | 82 | |
| 20260505080020 | 52 | 119 | 0.0 | 0.0 | 0.00 | 0.00 | 0.00 | 82 | |
| 20260505075516 | 52 | 119 | 0.0 | 0.0 | 0.00 | 0.00 | 0.00 | 82 | |
| 20260505075013 | 52 | 119 | 0.0 | 0.0 | 0.00 | 0.00 | 0.00 | 81 | |
| 20260505074510 | 53 | 119 | 0.0 | 0.0 | 0.00 | 0.00 | 0.00 | 81 | |
| 20260505074007 | 53 | 120 | 0.0 | 0.0 | 0.00 | 0.00 | 0.00 | 78 | |
| 20260505073504 | 53 | 119 | 0.0 | 0.0 | 0.00 | 0.00 | 0.00 | 78 | |
| 20260505073002 | 53 | 119 | 0.0 | 0.0 | 0.00 | 0.00 | 0.00 | 79 | |
| 20260505072458 | 53 | 119 | 0.0 | 0.0 | 0.00 | 0.00 | 0.00 | 78 | |
| 20260505071954 | 53 | 119 | 0.0 | 0.0 | 0.00 | 0.00 | 0.00 | 78 | |
| 20260505071450 | 53 | 119 | 0.0 | 0.0 | 0.00 | 0.00 | 0.00 | 77 | |
| 20260505070948 | 53 | 119 | 0.0 | 0.0 | 0.00 | 0.00 | 0.00 | 77 | |
| 20260505070445 | 54 | 119 | 0.0 | 0.0 | 0.00 | 0.00 | 0.00 | 78 | |
| 20260505065940 | 54 | 119 | 0.0 | 0.0 | 0.00 | 0.00 | 0.00 | 78 | |
| 20260505065437 | 54 | 119 | 0.0 | 0.0 | 0.00 | 0.00 | 0.00 | 75 | |
| 20260505064933 | 54 | 119 | 0.0 | 0.0 | 0.00 | 0.00 | 0.00 | 75 | |
| 20260505064431 | 55 | 119 | 0.0 | 0.0 | 0.00 | 0.00 | 0.00 | 73 | |
| 20260505063929 | 55 | 119 | 0.0 | 0.0 | 0.00 | 0.00 | 0.00 | 75 | |
| 20260505063425 | 55 | 119 | 0.0 | 0.0 | 0.00 | 0.00 | 0.00 | 74 | |
| 20260505062922 | 55 | 119 | 0.0 | 0.0 | 0.00 | 0.00 | 0.00 | 73 | |
| 20260505062419 | 55 | 119 | 0.0 | 0.0 | 0.00 | 0.00 | 0.00 | 72 | |
| 20260505061915 | 55 | 119 | 0.0 | 0.9 | 0.00 | 0.00 | 0.00 | 74 | |
| 20260505061414 | 55 | 137 | 0.0 | 0.0 | 0.00 | 0.00 | 0.00 | 73 | |
| 20260505060911 | 55 | 137 | 0.0 | 0.0 | 0.00 | 0.00 | 0.00 | 73 | |
| 20260505060408 | 55 | 137 | 0.0 | 0.9 | 0.00 | 0.00 | 0.00 | 72 | |
| 20260505055904 | 55 | 127 | 0.0 | 0.0 | 0.00 | 0.00 | 0.00 | 72 | |
| 20260505055400 | 55 | 127 | 0.0 | 0.0 | 0.00 | 0.00 | 0.00 | 74 | |
| 20260505054857 | 56 | 127 | 0.0 | 0.0 | 0.00 | 0.00 | 0.00 | 74 | |
| 20260505054354 | 56 | 127 | 0.0 | 0.0 | 0.00 | 0.00 | 0.00 | 73 | |
| 20260505053853 | 56 | 127 | 0.0 | 0.0 | 0.00 | 0.00 | 0.00 | 72 | |
| 20260505053350 | 56 | 127 | 0.0 | 0.0 | 0.00 | 0.00 | 0.00 | 71 | |
| 20260505052846 | 56 | 127 | 0.0 | 0.0 | 0.00 | 0.00 | 0.00 | 71 | |
| 20260505052343 | 56 | 127 | 0.0 | 0.0 | 0.00 | 0.00 | 0.00 | 72 | |
| 20260505051840 | 56 | 127 | 0.0 | 0.0 | 0.00 | 0.00 | 0.00 | 74 | |
| 20260505051337 | 56 | 127 | 0.0 | 0.0 | 0.00 | 0.00 | 0.00 | 73 | |
| 20260505050835 | 57 | 127 | 0.0 | 0.0 | 0.00 | 0.00 | 0.00 | 73 | |
| 20260505050334 | 57 | 127 | 0.0 | 0.0 | 0.00 | 0.00 | 0.00 | 71 | |
| 20260505041758 | 58 | 127 | 0.0 | 0.0 | 0.00 | 0.00 | 0.00 | 68 | |
| 20260505041255 | 59 | 127 | 0.0 | 0.0 | 0.00 | 0.00 | 0.00 | 69 | |
| 20260505040753 | 59 | 127 | 0.0 | 0.0 | 0.00 | 0.00 | 0.00 | 66 | |
| 20260505040250 | 59 | 127 | 0.0 | 0.0 | 0.00 | 0.00 | 0.00 | 65 | |
| 20260505035747 | 59 | 127 | 0.0 | 0.0 | 0.00 | 0.00 | 0.00 | 63 | |
| 20260505035243 | 60 | 127 | 0.0 | 0.0 | 0.00 | 0.00 | 0.00 | 65 | |
| 20260505034740 | 60 | 127 | 0.0 | 0.0 | 0.00 | 0.00 | 0.00 | 62 | |
| 20260505034237 | 60 | 127 | 0.0 | 0.0 | 0.00 | 0.00 | 0.00 | 64 | |
| 20260505033733 | 60 | 127 | 0.0 | 0.0 | 0.00 | 0.00 | 0.00 | 61 | |
| 20260505033231 | 61 | 127 | 0.0 | 0.0 | 0.00 | 0.00 | 0.00 | 61 | |
| 20260505032728 | 61 | 127 | 0.0 | 0.0 | 0.00 | 0.00 | 0.00 | 60 | |
| 20260505032224 | 61 | 127 | 0.0 | 0.0 | 0.00 | 0.00 | 0.00 | 60 | |
| 20260505031721 | 61 | 127 | 0.0 | 0.0 | 0.00 | 0.00 | 0.00 | 59 | |
| 20260505031218 | 62 | 127 | 0.0 | 0.0 | 0.00 | 0.00 | 0.00 | 59 | |
| 20260505030715 | 62 | 127 | 0.0 | 0.0 | 0.00 | 0.00 | 0.00 | 58 | |
| 20260505030206 | 62 | 127 | 0.0 | 0.0 | 0.00 | 0.00 | 0.00 | 58 | |
| 20260505025701 | 62 | 127 | 0.0 | 0.0 | 0.00 | 0.00 | 0.00 | 58 | |
| 20260505025200 | 62 | 127 | 0.0 | 0.0 | 0.00 | 0.00 | 0.00 | 59 | |
| 20260505024658 | 62 | 127 | 0.0 | 0.0 | 0.00 | 0.00 | 0.00 | 58 | |
| 20260505024154 | 62 | 127 | 0.0 | 0.0 | 0.00 | 0.00 | 0.00 | 57 | |
| 20260505023652 | 62 | 127 | 0.0 | 0.0 | 0.00 | 0.00 | 0.00 | 57 | |
| 20260505023149 | 62 | 127 | 0.0 | 0.0 | 0.00 | 0.00 | 0.00 | 57 | |
| 20260505022646 | 62 | 127 | 0.0 | 0.0 | 0.00 | 0.00 | 0.00 | 57 | |
| 20260505022143 | 62 | 127 | 0.0 | 0.0 | 0.00 | 0.00 | 0.00 | 57 | |
| 20260505021640 | 62 | 127 | 0.0 | 0.0 | 0.00 | 0.00 | 0.00 | 57 | |
| 20260505021137 | 62 | 127 | 0.0 | 0.0 | 0.00 | 0.00 | 0.00 | 59 | |
| 20260505020632 | 62 | 127 | 0.0 | 0.0 | 0.00 | 0.00 | 0.00 | 58 | |
| 20260505020128 | 63 | 127 | 0.0 | 0.0 | 0.00 | 0.00 | 0.00 | 62 | |
| 20260505015625 | 63 | 127 | 0.0 | 0.0 | 0.00 | 0.00 | 0.00 | 56 | |
| 20260505015122 | 63 | 127 | 0.0 | 0.0 | 0.00 | 0.00 | 0.00 | 56 | |
| 20260505014619 | 63 | 127 | 0.0 | 0.0 | 0.00 | 0.00 | 0.00 | 58 | |
| 20260505014116 | 64 | 127 | 0.0 | 0.0 | 0.00 | 0.00 | 0.00 | 55 | |
| 20260505013614 | 64 | 127 | 0.0 | 0.0 | 0.00 | 0.00 | 0.00 | 55 | |
| 20260505013110 | 64 | 127 | 0.0 | 0.0 | 0.00 | 0.00 | 0.00 | 55 | |
| 20260505012609 | 64 | 127 | 0.0 | 0.0 | 0.00 | 0.00 | 0.00 | 53 | |
| 20260505012105 | 64 | 127 | 0.0 | 0.0 | 0.00 | 0.00 | 0.00 | 54 | |
| 20260505011600 | 65 | 127 | 0.0 | 0.0 | 0.00 | 0.00 | 0.00 | 52 | |
| 20260505011058 | 65 | 127 | 0.0 | 0.0 | 0.00 | 0.00 | 0.00 | 54 | |
| 20260505010553 | 65 | 127 | 0.0 | 0.0 | 0.00 | 0.00 | 0.00 | 52 | |
| 20260505010050 | 66 | 127 | 0.0 | 0.0 | 0.00 | 0.00 | 0.00 | 50 | |
| 20260505005546 | 66 | 127 | 0.0 | 0.0 | 0.00 | 0.00 | 0.00 | 50 | |
| 20260505005044 | 66 | 127 | 0.0 | 0.0 | 0.00 | 0.00 | 0.00 | 49 | |
| 20260505004540 | 66 | 128 | 0.0 | 0.0 | 0.00 | 0.00 | 0.00 | 49 | |
| 20260505004037 | 67 | 128 | 0.0 | 0.0 | 0.00 | 0.00 | 0.00 | 49 | |
| 20260505003535 | 67 | 128 | 0.0 | 0.0 | 0.00 | 0.00 | 0.00 | 47 | |
| 20260505003032 | 68 | 128 | 0.0 | 0.0 | 0.00 | 0.00 | 0.00 | 47 | |
| 20260505002532 | 68 | 128 | 0.0 | 0.0 | 0.00 | 0.00 | 0.00 | 46 | |
| 20260505002032 | 68 | 128 | 0.0 | 0.0 | 0.00 | 0.00 | 0.00 | 45 | |
| 20260505001528 | 69 | 128 | 0.0 | 0.0 | 0.00 | 0.00 | 0.00 | 45 | |
| 20260505001025 | 69 | 128 | 0.0 | 0.0 | 0.00 | 0.00 | 0.00 | 44 | |
| 20260505000523 | 69 | 128 | 0.0 | 0.0 | 0.00 | 0.00 | 0.00 | 43 | |
| 20260505000020 | 70 | 127 | 0.0 | 0.0 | 0.00 | 0.00 | 0.00 | 42 | |
| 20260504235517 | 70 | 128 | 0.0 | 0.0 | 0.00 | 0.00 | 0.00 | 43 | |
| 20260504235013 | 71 | 128 | 0.0 | 0.0 | 0.00 | 0.00 | 0.00 | 42 | |
| 20260504234510 | 71 | 128 | 0.0 | 0.0 | 0.00 | 0.00 | 0.00 | 42 | |
| 20260504234007 | 71 | 129 | 0.0 | 0.0 | 0.00 | 0.00 | 0.00 | 43 | |
| 20260504233502 | 71 | 129 | 0.0 | 0.0 | 0.00 | 0.00 | 0.00 | 42 | |
| 20260504233000 | 72 | 129 | 0.0 | 0.0 | 0.00 | 0.00 | 0.00 | 41 | |
| 20260504232457 | 72 | 129 | 0.0 | 0.9 | 0.00 | 0.00 | 0.00 | 41 | |
| 20260504231954 | 73 | 132 | 0.0 | 0.9 | 0.00 | 0.00 | 0.00 | 41 | |
| 20260504231450 | 73 | 129 | 0.0 | 0.9 | 0.00 | 0.00 | 0.00 | 40 | |
| 20260504230947 | 73 | 134 | 0.0 | 0.0 | 0.00 | 0.00 | 0.00 | 39 | |
| 20260504230443 | 74 | 157 | 0.9 | 1.7 | 0.00 | 0.00 | 0.00 | 38 | |
| 20260504225943 | 74 | 165 | 1.7 | 1.7 | 0.00 | 0.00 | 0.00 | 37 | |
| 20260504225439 | 73 | 138 | 0.0 | 0.9 | 0.00 | 0.00 | 0.00 | 38 | |
| 20260504224936 | 74 | 139 | 0.9 | 0.9 | 0.00 | 0.00 | 0.00 | 38 | |
| 20260504224432 | 74 | 126 | 0.0 | 0.9 | 0.00 | 0.00 | 0.00 | 37 | |
| 20260504223930 | 75 | 123 | 0.9 | 1.7 | 0.00 | 0.00 | 0.00 | 38 | |
| 20260504223425 | 75 | 136 | 0.0 | 1.7 | 0.00 | 0.00 | 0.00 | 37 | |
| 20260504222921 | 75 | 140 | 0.0 | 2.6 | 0.00 | 0.00 | 0.00 | 38 | |
| 20260504222419 | 75 | 141 | 0.0 | 0.9 | 0.00 | 0.00 | 0.00 | 37 | |
| 20260504221917 | 75 | 125 | 0.9 | 1.7 | 0.00 | 0.00 | 0.00 | 36 | |
| 20260504221413 | 75 | 138 | 0.9 | 2.6 | 0.00 | 0.00 | 0.00 | 35 | |
| 20260504220911 | 76 | 132 | 0.9 | 1.7 | 0.00 | 0.00 | 0.00 | 32 | |
| 20260504220407 | 76 | 101 | 1.7 | 2.6 | 0.00 | 0.00 | 0.00 | 30 | |
| 20260504215904 | 76 | 144 | 0.0 | 0.9 | 0.00 | 0.00 | 0.00 | 35 | |
| 20260504215401 | 76 | 135 | 0.0 | 0.9 | 0.00 | 0.00 | 0.00 | 31 | |
| 20260504214857 | 75 | 141 | 0.0 | 1.7 | 0.00 | 0.00 | 0.00 | 31 | |
| 20260504214354 | 75 | 140 | 0.9 | 0.9 | 0.00 | 0.00 | 0.00 | 32 |